Location: Newark
(6.1731°S, 35.7419°E)
Time: 06:06:13
(UTC+00:00)

Tiros 1 - Visible Passes

Search period start: 24 February 2020 00:00
Search period end: 05 March 2020 00:00
Orbit: 631 x 664 km, 48.4° (Epoch: 23 February)

Date Brightness Start Highest point End Pass type
(mag) Time Alt. Az. Time Alt. Az. Time Alt. Az.
25 Feb 9.8 18:08:35 10° SSW 18:09:00 12° S 18:09:00 12° S visible
26 Feb 10.1 18:34:04 10° SW 18:34:21 12° SW 18:34:21 12° SW visible
27 Feb 8.4 17:18:39 10° S 17:22:07 27° SE 17:22:07 27° SE visible
28 Feb 7.7 17:43:59 10° SW 17:47:43 54° SW 17:47:43 54° SW visible
29 Feb 8.4 16:28:45 10° S 16:32:42 25° SE 16:35:43 14° E visible
29 Feb 9.3 18:10:43 10° WSW 18:13:27 23° WNW 18:13:27 23° WNW visible
01 Mar 7.1 16:53:55 10° SW 16:58:44 81° SE 17:01:35 24° NE visible
02 Mar 8.8 17:20:29 10° WSW 17:24:41 30° NW 17:27:32 17° N visible
04 Mar 8.8 16:30:16 10° WSW 16:34:37 34° NW 16:38:56 10° NNE visible
